Hourly Weather Roundup
Issued by NWS Central Illinois

Home | Current Version | Previous Version | Text Only | Print | Product List | Glossary On
Versions: 1 2 3 4 5 6 7 8 9 10 11 12 13 14 15 16 17 18 19 20 21 22 23 24 25 26 27 28 29 30 31 32 33 34 35 36 37 38 39 40 41 42 43 44 45 46 47 48 49 50
000
NZUS43 KILX 300510
HWRILX

AREA WEATHER ROUNDUP
NATIONAL WEATHER SERVICE, LINCOLN IL
1200 AM CDT TUE AUG 30 2016


CITY           SKY/WX    TMP DP  RH WIND       PRES   REMARKS
BLOOMINGTON    PTCLDY    75  72  90 SE5       30.18F
CHAMPAIGN      CLEAR     73  71  93 SE5       30.17S FOG
DANVILLE       CLEAR     71  71  99 CALM      30.15S FOG
DECATUR        CLEAR     73  71  93 E5        30.16F
EFFINGHAM      CLEAR     72  72 100 CALM      30.17F FOG
FLORA          CLEAR     75  74  95 CALM      30.15F
GALESBURG      CLOUDY    73  70  91 CALM      30.17R
JACKSONVILLE   CLEAR     75  73  91 E6        30.15R
LACON          CLOUDY    70  69  96 CALM      30.17R
LAWRENCEVILLE  CLEAR     75  75 100 CALM      30.15S
LITCHFIELD     CLEAR     74  70  88 CALM      30.16S
$$


CITY           SKY/WX    TMP DP  RH WIND       PRES   REMARKS
LINCOLN        CLEAR     74  74  99 CALM      30.16S
MACOMB         PTCLDY    71  70  98 NE3       30.18S FOG
MATTOON        CLEAR     73  71  93 CALM      30.16S
MT CARMEL AP   CLEAR     72  71  95 CALM      30.14S FOG
OLNEY-NOBLE AP CLEAR     73  73 100 CALM      30.15F
PARIS          CLEAR     71  71 100 CALM      30.17S FOG
PEORIA         PTCLDY    75  74  96 E5        30.17R
PONTIAC        PTCLDY    73  73 100 CALM      30.18S FOG
RANTOUL        CLEAR     76  74  94 CALM      30.17S
ROBINSON       FOG       68  68 100 CALM      30.16S VSB 1/2
SPRINGFIELD    CLEAR     76  73  91 CALM      30.15F
TAYLORVILLE    CLEAR     73  73  97 CALM      30.15F
$$

...REGIONAL REPORTS...


CITY           SKY/WX    TMP DP  RH WIND       PRES   REMARKS
CHICAGO O`HARE CLOUDY    74  71  91 CALM      30.17F
KANKAKEE       CLEAR     73  73  97 CALM      30.18S FOG
MOLINE         PTCLDY    73  70  90 CALM      30.17R
MOUNT STERLING CLEAR     71  70  96 CALM      30.16R
MOUNT VERNON   CLEAR     73  66  78 NE3       30.15F
PITTSFIELD     CLEAR     73  72  98 CALM      30.17R
QUINCY         CLEAR     74  70  87 CALM      30.16R
ROCKFORD       CLOUDY    72  69  90 CALM      30.20R FOG
$$


CITY           SKY/WX    TMP DP  RH WIND       PRES   REMARKS
BURLINGTON     MOCLDY    72  71  97 N5        30.17R
CEDAR RAPIDS   PTCLDY    70  70 100 SE3       30.18S
DES MOINES     LGT RAIN  74  72  93 SW3       30.18F
KIRKSVILLE     PTCLDY    73  70  90 NE5       30.18S
OTTUMWA        CLOUDY    69  67  93 CALM      30.18R
ST LOUIS       PTCLDY    81  74  79 E5        30.15F HX  86
$$


CITY           SKY/WX    TMP DP  RH WIND       PRES   REMARKS
TERRE HAUTE    CLEAR     72  70  93 CALM      30.16S
EVANSVILLE     CLEAR     77  70  79 NE3       30.14S
INDIANAPOLIS   CLEAR     78  70  76 E6        30.16F HX  80
LAFAYETTE      CLEAR     73  73 100 CALM      30.16S
MADISON        PTCLDY    71  68  90 MISG      30.18R
MILWAUKEE      MOCLDY    74  69  85 S8        30.19R
$$






USA.gov is the U.S. government's official web portal to all federal, state and local government web resources and services.